TimeCST,TemperatureF,Dew PointF,Humidity,Sea Level PressureIn,VisibilityMPH,Wind Direction,Wind SpeedMPH,Gust SpeedMPH,PrecipitationIn,Events,Conditions,WindDirDegrees,DateUTC
12:15 AM,27.3,22.6,83,29.96,10.0,WSW,12.7,-,N/A,,Mostly Cloudy,240,2013-02-23 06:15:00
12:35 AM,27.9,22.8,81,29.96,10.0,WSW,12.7,-,N/A,,Mostly Cloudy,240,2013-02-23 06:35:00
12:55 AM,27.9,23.0,82,29.96,10.0,SW,9.2,-,N/A,,Overcast,230,2013-02-23 06:55:00
1:15 AM,27.5,23.0,83,29.96,10.0,WSW,10.4,-,N/A,,Overcast,240,2013-02-23 07:15:00
1:35 AM,27.5,23.0,83,29.96,10.0,WSW,10.4,-,N/A,,Overcast,240,2013-02-23 07:35:00
1:55 AM,27.1,22.8,84,29.96,10.0,WSW,11.5,-,N/A,,Overcast,240,2013-02-23 07:55:00
2:15 AM,27.0,22.5,83,29.95,10.0,WSW,10.4,-,N/A,,Overcast,250,2013-02-23 08:15:00
2:35 AM,27.0,22.6,84,29.95,10.0,WSW,8.1,-,N/A,,Overcast,250,2013-02-23 08:35:00
2:55 AM,27.0,22.8,84,29.95,10.0,WSW,8.1,-,N/A,,Overcast,250,2013-02-23 08:55:00
3:15 AM,27.0,22.8,84,29.95,10.0,WSW,9.2,-,N/A,,Overcast,250,2013-02-23 09:15:00
3:35 AM,27.0,22.5,83,29.95,10.0,WSW,9.2,-,N/A,,Overcast,250,2013-02-23 09:35:00
3:55 AM,27.0,22.1,82,29.95,10.0,WSW,9.2,-,N/A,,Overcast,250,2013-02-23 09:55:00
4:15 AM,27.0,22.1,82,29.95,10.0,WSW,10.4,-,N/A,,Overcast,250,2013-02-23 10:15:00
4:35 AM,26.4,21.9,83,29.95,10.0,WSW,9.2,-,N/A,,Overcast,240,2013-02-23 10:35:00
4:55 AM,25.7,21.7,85,29.96,10.0,WSW,9.2,-,N/A,,Mostly Cloudy,250,2013-02-23 10:55:00
5:15 AM,25.7,21.2,83,29.96,10.0,West,8.1,-,N/A,,Mostly Cloudy,260,2013-02-23 11:15:00
5:35 AM,24.8,21.2,86,29.96,10.0,West,10.4,-,N/A,,Scattered Clouds,260,2013-02-23 11:35:00
5:55 AM,24.6,19.9,82,29.97,10.0,WSW,10.4,-,N/A,,Clear,250,2013-02-23 11:55:00
6:15 AM,23.9,19.4,83,29.96,10.0,West,8.1,-,N/A,,Clear,260,2013-02-23 12:15:00
6:35 AM,23.2,19.0,84,29.97,10.0,WSW,5.8,-,N/A,,Clear,250,2013-02-23 12:35:00
6:55 AM,22.6,18.7,85,29.97,10.0,West,6.9,-,N/A,,Clear,260,2013-02-23 12:55:00
7:15 AM,23.5,19.0,83,29.97,10.0,West,8.1,-,N/A,,Clear,260,2013-02-23 13:15:00
7:35 AM,24.3,19.2,81,29.97,10.0,West,8.1,-,N/A,,Clear,260,2013-02-23 13:35:00
7:55 AM,24.8,19.0,79,29.96,10.0,West,10.4,-,N/A,,Clear,270,2013-02-23 13:55:00
8:15 AM,25.7,18.9,75,29.97,10.0,West,11.5,-,N/A,,Clear,270,2013-02-23 14:15:00
8:35 AM,26.6,19.4,74,29.97,10.0,West,9.2,-,N/A,,Mostly Cloudy,270,2013-02-23 14:35:00
8:55 AM,25.9,19.4,76,29.97,10.0,West,13.8,-,N/A,,Overcast,260,2013-02-23 14:55:00
9:15 AM,26.1,19.6,76,29.98,10.0,WSW,9.2,-,N/A,,Overcast,250,2013-02-23 15:15:00
9:35 AM,26.6,19.4,74,29.96,10.0,West,9.2,-,N/A,,Overcast,280,2013-02-23 15:35:00
9:55 AM,26.6,19.6,75,29.97,10.0,West,9.2,-,N/A,,Overcast,270,2013-02-23 15:55:00
10:15 AM,26.8,19.2,73,29.97,10.0,West,9.2,-,N/A,,Mostly Cloudy,260,2013-02-23 16:15:00
10:35 AM,27.5,19.9,73,29.97,10.0,WSW,11.5,-,N/A,,Scattered Clouds,250,2013-02-23 16:35:00
10:55 AM,27.7,20.1,73,29.96,10.0,WSW,10.4,-,N/A,,Scattered Clouds,240,2013-02-23 16:55:00
11:15 AM,27.7,20.1,73,29.96,10.0,WSW,10.4,-,N/A,,Overcast,250,2013-02-23 17:15:00
11:35 AM,28.4,21.4,75,29.97,10.0,West,9.2,-,N/A,,Mostly Cloudy,260,2013-02-23 17:35:00
11:55 AM,28.4,21.0,74,29.95,10.0,WSW,9.2,-,N/A,,Mostly Cloudy,240,2013-02-23 17:55:00
12:15 PM,28.4,21.0,74,29.95,10.0,SW,8.1,-,N/A,,Mostly Cloudy,230,2013-02-23 18:15:00
12:35 PM,28.2,20.5,73,29.93,10.0,SW,6.9,-,N/A,,Scattered Clouds,230,2013-02-23 18:35:00
12:55 PM,29.1,21.4,73,29.94,10.0,West,12.7,-,N/A,,Mostly Cloudy,260,2013-02-23 18:55:00
1:15 PM,28.6,20.7,72,29.95,10.0,West,8.1,-,N/A,,Mostly Cloudy,270,2013-02-23 19:15:00
1:35 PM,29.5,21.2,71,29.94,10.0,WSW,12.7,16.1,N/A,,Mostly Cloudy,240,2013-02-23 19:35:00
1:55 PM,29.1,21.6,73,29.94,10.0,WSW,11.5,-,N/A,,Overcast,240,2013-02-23 19:55:00
2:15 PM,28.8,21.0,73,29.93,10.0,SW,11.5,-,N/A,,Overcast,230,2013-02-23 20:15:00
2:35 PM,28.4,21.2,74,29.93,10.0,West,10.4,-,N/A,,Overcast,270,2013-02-23 20:35:00
2:55 PM,29.3,21.4,72,29.93,10.0,West,12.7,-,N/A,,Mostly Cloudy,260,2013-02-23 20:55:00
3:15 PM,28.9,22.5,77,29.93,10.0,West,10.4,-,N/A,,Mostly Cloudy,260,2013-02-23 21:15:00
3:35 PM,28.4,21.6,76,29.93,10.0,West,12.7,-,N/A,,Mostly Cloudy,260,2013-02-23 21:35:00
3:55 PM,28.4,22.1,77,29.94,10.0,WSW,12.7,-,N/A,,Overcast,240,2013-02-23 21:55:00
4:15 PM,28.4,21.9,77,29.94,10.0,WSW,10.4,16.1,N/A,,Overcast,250,2013-02-23 22:15:00
4:35 PM,28.4,21.9,77,29.95,10.0,West,8.1,-,N/A,,Overcast,260,2013-02-23 22:35:00
4:55 PM,28.4,22.1,77,29.95,10.0,WSW,10.4,-,N/A,,Overcast,240,2013-02-23 22:55:00
5:15 PM,28.4,22.1,77,29.95,10.0,WSW,10.4,-,N/A,,Overcast,240,2013-02-23 23:15:00
5:35 PM,28.4,22.1,77,29.95,10.0,West,6.9,-,N/A,,Overcast,270,2013-02-23 23:35:00
5:55 PM,28.4,22.8,80,29.95,10.0,West,5.8,-,N/A,,Overcast,270,2013-02-23 23:55:00
6:15 PM,28.0,22.5,80,29.96,10.0,West,8.1,-,N/A,,Overcast,260,2013-02-24 00:15:00
6:35 PM,27.7,22.3,80,29.96,10.0,West,10.4,-,N/A,,Overcast,270,2013-02-24 00:35:00
6:55 PM,27.3,22.1,81,29.97,10.0,West,8.1,-,N/A,,Overcast,280,2013-02-24 00:55:00
7:15 PM,27.1,22.1,81,29.97,10.0,WNW,6.9,-,N/A,,Overcast,290,2013-02-24 01:15:00
7:35 PM,26.6,23.0,86,29.97,10.0,West,9.2,-,N/A,,Overcast,270,2013-02-24 01:35:00
7:55 PM,27.0,22.1,82,29.97,10.0,WNW,6.9,-,N/A,,Overcast,290,2013-02-24 01:55:00
8:15 PM,26.6,22.1,83,29.97,10.0,WNW,5.8,-,N/A,,Mostly Cloudy,300,2013-02-24 02:15:00
8:35 PM,24.8,21.2,86,29.96,10.0,WNW,3.5,-,N/A,,Scattered Clouds,300,2013-02-24 02:35:00
8:55 PM,24.8,21.0,86,29.97,10.0,Calm,Calm,-,N/A,,Clear,0,2013-02-24 02:55:00
9:15 PM,24.4,20.8,86,29.97,10.0,Calm,Calm,-,N/A,,Clear,0,2013-02-24 03:15:00
9:35 PM,23.9,20.7,87,29.98,10.0,WSW,3.5,-,N/A,,Clear,250,2013-02-24 03:35:00
9:55 PM,23.7,20.5,87,29.98,10.0,Calm,Calm,-,N/A,,Clear,0,2013-02-24 03:55:00
10:15 PM,23.0,20.7,91,29.98,10.0,Calm,Calm,-,N/A,,Clear,0,2013-02-24 04:15:00
10:35 PM,23.0,20.7,91,29.98,10.0,SW,3.5,-,N/A,,Clear,230,2013-02-24 04:35:00
10:55 PM,22.1,19.9,91,29.98,10.0,WSW,3.5,-,N/A,,Clear,250,2013-02-24 04:55:00
11:15 PM,22.5,20.3,91,29.98,10.0,Calm,Calm,-,N/A,,Clear,0,2013-02-24 05:15:00
11:35 PM,22.3,20.1,91,29.98,10.0,Calm,Calm,-,N/A,,Clear,0,2013-02-24 05:35:00
11:55 PM,22.1,20.3,93,29.97,7.0,Calm,Calm,-,N/A,,Clear,0,2013-02-24 05:55:00